Theta_e
314 313 312 314 311 316 317 317 317 315 316 316 315 315 315 314 312 312 310 308 308 307 307 308 308 308 307 306 305 305 306 307 308 309 309 310 310 311 311 309 307 306 306 306
313 312 311 311 313 313 314 316 315 315 313 313 314 315 315 314 313 311 311 310 309 307 306 305 304 304 305 304 305 306 307 308 308 309 309 310 310 310 310 308 306 306 307 307
313 315 313 313 315 315 315 315 314 317 316 313 312 314 314 315 314 312 310 311 310 307 307 304 302 303 304 304 305 306 307 308 308 309 309 310 311 310 310 309 307 306 307 307
313 313 314 314 316 314 316 313 314 318 316 316 312 317 309 313 312 315 312 310 310 308 306 304 302 301 302 304 306 306 307 308 308 309 309 310 310 309 310 310 308 308 308 308
312 312 313 314 315 312 315 313 316 315 314 314 313 310 313 312 316 316 315 309 309 307 304 303 302 302 303 304 306 306 307 307 308 308 309 310 310 310 311 309 309 309 310 310
309 309 310 311 310 312 311 312 311 310 310 310 310 313 314 312 315 317 312 309 309 306 304 303 302 302 303 306 306 306 307 307 307 308 308 309 311 311 312 311 311 310 310 312
311 310 310 309 312 311 311 312 311 311 309 316 312 312 314 313 312 312 311 310 308 306 304 302 301 301 304 306 306 307 307 307 307 307 308 309 311 311 312 313 313 314 314 314
311 310 310 308 311 312 310 311 312 311 317 318 311 316 316 311 309 308 308 309 308 306 304 302 300 301 303 306 306 307 307 307 307 307 308 309 310 311 312 314 314 314 315 316
310 309 309 309 309 310 312 313 310 311 303 309 310 309 309 309 309 309 311 309 307 305 303 302 299 301 303 305 305 306 307 307 307 307 308 309 310 311 312 314 315 316 317 317
312 313 308 308 308 308 310 309 311 308 309 313 312 311 313 312 311 309 307 309 307 305 303 301 299 300 302 304 304 306 307 307 307 307 308 308 310 311 312 313 315 316 317 318
310 313 310 308 309 310 310 310 309 310 310 316 317 315 308 308 306 306 306 306 307 305 303 302 300 300 301 303 304 306 307 307 306 306 307 308 309 310 311 313 314 315 316 318
312 316 310 309 307 307 308 309 309 312 312 311 314 313 306 305 303 304 304 306 307 305 303 301 300 300 300 301 303 305 306 307 307 306 306 307 308 309 310 311 313 313 314 317
313 313 316 316 314 308 308 308 308 308 308 312 314 314 305 305 305 303 303 303 304 306 304 302 300 298 299 300 302 303 306 306 306 306 306 306 308 308 309 310 312 313 313 315
313 313 315 315 313 309 309 308 308 309 311 312 312 313 306 304 303 301 300 301 301 303 304 302 300 299 299 299 300 302 304 305 306 306 306 306 306 307 308 309 310 311 312 314
309 313 310 311 311 310 309 309 308 310 310 311 312 311 304 302 301 298 298 299 298 298 298 298 300 300 300 299 299 300 302 304 305 306 306 306 306 306 307 308 308 309 310 312
306 312 310 308 312 312 314 312 309 308 309 309 309 308 299 299 298 295 296 296 295 295 294 294 295 297 298 300 300 299 300 302 304 305 306 306 306 305 306 307 307 307 308 310
308 309 310 312 309 312 314 311 312 311 302 303 309 301 296 297 297 294 294 293 293 292 292 291 291 293 294 293 294 297 299 300 302 304 305 306 306 305 305 306 307 306 305 306
304 308 310 313 308 315 305 298 302 301 296 297 297 295 294 294 295 292 292 292 291 290 290 289 289 290 291 289 289 293 297 298 300 302 304 305 305 305 305 305 305 305 306 305
301 305 308 307 305 310 306 297 298 301 295 294 294 294 293 293 295 295 292 291 290 289 288 287 287 287 287 286 287 290 293 296 299 301 303 304 304 304 304 303 304 305 304 305
303 302 306 307 311 313 298 295 295 296 298 292 293 293 293 294 298 293 291 290 289 288 287 286 285 286 285 284 285 287 288 288 288 290 294 300 302 303 303 303 304 304 304 304
296 301 304 304 309 298 294 294 296 303 295 292 291 291 292 292 293 292 290 289 288 287 286 285 284 284 284 283 283 284 285 284 285 287 290 295 298 301 302 302 303 303 303 302
294 291 293 293 299 300 292 293 294 293 292 291 291 291 291 291 291 290 289 288 287 286 285 284 283 283 283 282 282 283 282 281 283 285 288 291 294 297 299 300 300 301 301 301
291 288 289 295 295 291 291 292 292 291 291 291 291 288 288 288 287 286 287 286 284 284 283 282 281 281 281 281 280 281 281 280 281 283 285 288 291 294 296 296 297 297 298 297
284 283 286 286 287 290 292 291 290 291 290 288 285 284 284 284 283 283 284 283 282 280 280 279 279 280 279 279 278 279 279 278 279 280 282 285 287 290 293 293 294 294 295 294
284 286 285 286 290 291 288 288 288 288 286 284 282 281 280 280 280 281 280 279 278 277 276 276 276 276 276 276 276 277 277 277 277 279 281 282 284 286 289 292 292 292 294 295
286 286 284 284 286 287 289 287 284 283 282 280 278 278 277 278 277 276 276 276 275 274 274 274 273 273 273 273 274 275 275 275 276 277 279 280 282 285 287 289 290 292 292 293
Wind_Speed
2 3 9 14 9 2 3 3 4 4 3 3 7 15 18 13 11 16 14 10 9 10 4 17 24 30 28 22 18 14 10 6 3 2 5 3 2 5 5 4 4 3 3 5
4 8 8 5 5 6 5 4 6 5 1 3 5 15 19 18 12 7 8 8 7 5 8 11 23 29 27 23 18 14 10 7 5 4 6 3 1 3 5 6 7 6 5 5
7 4 4 9 5 7 5 7 4 6 2 4 6 8 6 5 5 5 4 3 0 8 11 11 14 23 23 22 19 14 11 8 6 6 7 3 2 3 3 5 6 6 5 5
5 5 2 4 5 7 5 5 5 4 2 3 3 6 6 7 11 5 7 5 1 5 6 10 10 17 24 21 17 14 11 9 8 7 8 4 4 4 2 5 6 5 4 3
8 4 6 6 6 8 6 2 3 3 2 2 2 2 8 4 10 7 4 7 4 6 8 10 10 18 21 21 18 14 11 10 9 8 9 6 5 4 7 8 8 5 4 3
6 1 3 7 3 2 5 5 6 5 2 2 5 5 6 4 5 3 2 5 6 7 8 7 12 20 20 19 17 14 12 10 10 9 11 9 6 8 10 9 8 6 5 5
1 2 1 2 5 4 3 6 2 3 2 5 1 3 10 7 7 6 6 8 7 6 8 9 9 10 19 20 18 15 13 12 12 11 11 10 7 8 10 11 11 9 7 8
7 4 9 6 6 8 7 8 5 6 4 3 2 6 7 7 5 3 4 3 5 5 6 8 9 14 19 22 19 16 15 14 14 12 12 11 9 9 10 9 10 10 10 10
6 5 0 1 3 6 6 5 4 5 2 3 4 6 10 2 2 4 4 2 6 7 7 8 8 16 21 22 21 18 16 15 15 14 14 13 12 11 11 9 9 9 8 12
3 2 2 1 2 1 4 5 3 2 2 4 3 4 6 6 7 6 7 7 6 5 6 6 6 14 20 21 19 17 17 17 17 15 15 15 13 12 11 11 11 10 10 13
3 1 1 2 6 7 3 3 3 4 5 5 2 5 4 5 6 8 8 7 7 7 7 7 7 15 19 18 18 18 18 17 17 18 17 17 15 14 13 13 13 12 12 13
1 3 3 7 2 3 2 6 7 4 4 3 3 5 3 6 7 7 9 8 5 6 6 6 6 11 14 16 18 21 20 20 19 19 19 19 18 16 16 16 18 16 15 14
8 4 3 1 3 1 5 5 4 3 2 6 6 4 7 10 16 16 16 17 9 2 3 4 4 6 13 19 21 21 22 22 20 19 20 20 21 20 19 19 19 19 18 18
3 4 3 5 2 3 4 4 7 6 4 4 7 3 8 15 16 17 18 16 17 15 8 5 5 7 15 21 23 24 25 24 22 21 21 22 23 23 22 20 21 21 19 19
2 3 3 5 5 5 1 4 6 14 16 7 4 7 7 10 11 12 13 16 18 18 18 17 15 7 11 16 22 25 26 25 24 23 24 25 23 24 24 23 22 22 22 21
1 1 1 3 8 8 10 8 5 5 7 13 13 6 5 5 8 14 16 16 17 17 17 17 17 16 21 18 21 25 27 28 26 27 29 26 24 23 26 25 25 23 23 25
2 1 0 3 3 4 5 12 13 5 5 3 6 4 7 6 11 14 15 14 14 15 16 17 16 19 24 27 27 19 26 27 28 30 30 28 26 26 27 26 26 27 27 26
3 2 1 2 3 4 4 4 1 13 10 9 7 9 8 7 5 12 14 13 14 14 15 15 18 23 25 27 30 30 18 19 25 29 29 29 29 28 27 27 29 29 29 30
9 3 2 2 3 1 2 6 4 4 5 8 8 9 9 12 5 8 12 11 11 12 14 18 20 20 22 26 29 27 26 13 14 20 27 29 30 30 30 30 31 31 30 31
7 10 4 2 3 3 4 8 4 6 2 5 7 10 12 13 4 3 10 11 11 14 17 21 23 21 24 29 28 24 23 24 23 21 19 22 29 31 33 33 33 32 33 33
3 1 8 8 3 3 8 10 4 5 2 2 3 5 7 6 3 6 8 10 12 13 18 21 21 20 22 27 26 22 21 23 26 26 23 18 21 27 31 33 33 32 32 31
1 2 2 3 1 3 7 2 3 2 2 3 3 3 6 5 7 7 8 10 14 17 18 20 21 22 23 24 24 21 20 26 28 27 24 20 19 22 27 30 32 31 30 31
1 3 2 1 2 1 4 5 6 4 1 2 2 4 7 9 8 9 9 10 13 16 19 17 20 21 21 22 23 22 25 27 29 27 27 24 21 19 21 27 30 30 30 27
4 2 1 4 3 4 4 1 2 2 2 3 4 4 5 7 9 11 9 9 12 16 17 20 22 21 22 23 24 22 25 28 28 24 25 25 23 21 18 20 25 26 24 23
5 1 3 4 0 3 1 1 2 1 4 3 3 3 4 7 9 9 10 11 15 17 18 19 19 22 24 24 25 25 28 29 26 23 20 21 21 20 19 18 20 25 30 30
4 5 3 4 4 3 2 4 2 2 1 1 3 3 5 5 6 10 9 13 13 16 18 19 19 20 24 26 25 25 29 26 25 23 20 20 20 20 17 16 20 20 24 29
Wind_Direction
197 129 205 201 199 125 148 192 245 281 249 202 238 269 280 279 264 278 266 256 238 227 207 165 164 165 160 162 162 163 158 157 163 162 148 127 101 39 42 48 54 71 110 122
82 232 216 198 214 239 282 277 262 273 231 220 286 277 283 280 264 249 260 276 248 167 137 135 147 157 162 161 163 158 159 158 164 168 158 153 353 15 33 74 66 104 116 112
171 230 176 184 188 198 223 212 225 228 323 272 323 289 323 292 272 252 215 232 335 188 154 150 152 161 163 163 164 161 161 159 167 164 164 186 173 123 84 86 85 106 113 115
241 254 190 168 217 161 229 214 195 191 107 228 11 285 300 289 301 272 254 239 108 128 134 152 152 160 166 165 163 164 163 164 169 165 165 149 143 139 130 104 113 115 123 117
232 192 192 190 207 165 226 89 176 155 115 8 327 77 268 321 296 306 291 228 190 165 154 159 160 165 168 165 167 167 166 168 173 170 166 169 161 150 118 121 126 134 132 141
221 26 189 195 108 175 138 83 37 42 83 347 232 157 288 244 216 271 294 249 198 171 157 150 156 165 164 166 169 172 171 175 180 179 177 186 176 151 133 131 136 136 140 138
113 225 305 152 86 38 103 92 302 346 357 220 318 94 246 267 271 253 256 231 219 181 162 159 157 164 166 173 176 177 179 185 186 187 183 185 179 164 145 134 136 140 139 145
157 263 176 193 177 178 191 167 166 208 204 255 34 227 251 230 274 302 288 239 177 188 179 172 170 173 176 181 182 182 187 193 192 190 188 189 182 176 161 148 146 149 148 160
167 253 328 135 155 159 195 194 175 100 37 56 227 277 299 344 316 314 296 171 197 198 196 181 170 182 185 188 191 190 194 200 199 196 190 192 189 187 178 171 161 154 144 168
203 233 350 168 179 42 152 170 89 2 188 246 274 275 237 359 326 301 282 253 234 207 189 197 190 190 198 198 197 197 204 207 205 203 198 193 196 193 191 186 179 175 165 169
189 171 313 155 210 174 160 190 206 150 166 187 166 255 223 341 338 333 321 264 233 210 202 208 201 204 204 205 203 205 208 212 211 208 204 197 202 201 200 197 197 186 187 178
70 79 201 206 274 240 261 212 177 159 210 227 151 272 11 11 354 346 352 335 253 213 209 216 207 202 208 212 209 212 213 215 219 214 210 205 203 209 209 204 207 203 203 198
153 202 146 295 336 348 219 197 202 126 89 204 142 240 34 27 30 19 20 4 342 202 203 218 211 207 212 219 219 218 219 222 221 218 216 213 205 211 216 211 206 209 208 203
76 187 216 186 151 114 185 216 213 197 201 205 213 220 26 14 11 5 7 11 17 15 352 312 253 224 220 224 225 224 225 226 224 221 221 219 215 212 217 218 216 213 213 211
32 240 206 262 308 346 323 235 213 222 238 221 190 215 40 11 9 360 4 13 19 15 10 5 355 312 279 249 237 235 233 229 226 225 224 226 225 219 217 223 223 220 221 221
31 296 144 271 214 229 257 263 270 262 254 258 262 259 359 3 28 15 16 15 12 5 1 357 358 356 360 315 270 251 240 235 228 226 229 232 229 226 220 223 226 228 226 226
319 303 166 265 308 186 259 259 245 202 59 356 246 23 17 20 38 24 13 13 10 0 356 355 353 351 355 351 350 304 268 249 233 230 232 233 232 227 224 224 227 230 230 227
316 303 294 299 5 243 129 3 99 94 53 23 39 21 354 338 98 58 28 15 7 0 355 352 348 348 353 350 348 345 326 272 246 237 235 236 235 233 230 227 229 233 234 235
216 304 273 231 211 159 118 15 3 21 60 23 22 7 344 325 179 75 26 15 4 357 354 349 347 348 351 356 352 356 8 332 276 255 247 244 239 237 235 231 231 236 238 240
221 220 267 227 235 262 52 332 315 305 148 22 15 7 359 2 80 11 355 355 353 352 352 349 347 352 1 358 358 5 10 11 2 345 326 282 258 244 239 239 237 235 237 242
333 282 227 238 267 61 327 315 301 190 89 6 347 356 354 21 347 314 335 342 345 344 346 347 349 351 352 354 356 3 4 2 346 340 329 318 282 262 252 248 244 240 237 240
336 356 328 329 312 199 317 77 70 66 168 250 285 296 319 317 315 329 330 336 341 342 346 347 344 341 344 350 352 351 356 346 346 345 339 325 312 279 263 253 250 244 239 239
319 166 226 291 287 179 300 127 148 190 234 299 316 10 342 317 327 327 330 335 338 339 338 341 336 331 337 344 347 338 340 342 346 346 345 341 325 305 278 262 254 245 240 231
314 205 233 29 297 179 160 68 155 215 271 62 51 3 338 320 322 323 330 338 336 338 338 337 333 332 330 334 335 330 332 337 340 338 339 341 339 329 312 280 260 248 234 228
214 33 214 267 16 118 116 206 160 6 76 60 21 358 333 324 324 334 332 335 336 335 336 337 335 330 326 327 327 327 328 335 333 331 333 336 335 335 322 308 283 258 251 240
193 206 157 233 224 169 184 167 130 153 140 20 328 324 337 344 329 333 323 327 328 329 328 329 328 325 324 325 326 326 327 329 328 327 327 331 326 325 325 313 302 289 273 263